This demonstration page uses our WeatherBlox Daily Observations layout. Learn more.

Left ArrowRight Arrow

38.20091, -84.87328

Hourly Observations for August 6, 2022

Temp ( °F °C ) Dew Point ( °F °C ) Humidity (%) Winds ( mph kmh ) Pressure ( in mb ) Visibility ( mi km ) Precip ( " mm )
12:53 am 00:53 Cloudy 76 24.4 73 22.8 91 91 S 7 11 30.11 1020 10 16 0.00 0.00
1:53 am 01:53 Cloudy 76 24.4 73 22.8 91 91 Calm 30.11 1020 10 16 0.00 0.00
2:53 am 02:53 Mostly Cloudy 76 24.4 73 22.8 91 91 S 6 9 30.09 1019 10 16 0.00 0.00
3:53 am 03:53 Cloudy 76 24.4 72 22.2 88 88 S 6 9 30.09 1019 10 16 0.00 0.00
4:53 am 04:53 Mostly Clear 75 23.9 72 22.2 90 90 SSW 6 9 30.10 1019 10 16 0.00 0.00
5:53 am 05:53 Mostly Cloudy 75 23.9 72 22.2 90 90 SSW 5 7 30.12 1020 10 16 0.00 0.00
6:53 am 06:53 Sunny 75 23.9 72 22.2 90 90 Calm 30.13 1020 10 16 0.00 0.00
7:53 am 07:53 Sunny 75 23.9 72 22.2 90 90 SSW 3 6 30.15 1021 10 16 0.00 0.00
8:53 am 08:53 Sunny 77 25 73 22.8 88 88 SW 7 11 30.16 1021 10 16 0.00 0.00
9:53 am 09:53 Mostly Cloudy 80 26.7 74 23.3 82 82 S 5 7 30.16 1022 10 16 0.00 0.00
10:53 am 10:53 Cloudy 82 27.8 75 23.9 79 79 SW 9 15 30.16 1022 10 16 0.00 0.00
11:06 am 11:06 Mostly Cloudy with Nearby Thunderstorms 82 27.8 74 23.3 77 77 S 7 11 30.15 1021 10 16 0.00 0.00
11:18 am 11:18 Mostly Cloudy 81 27.2 74 23.3 79 79 SW 6 9 30.15 1021 10 16 0.00 0.00
11:44 am 11:44 Cloudy with Nearby Thunderstorms 82 27.8 75 23.9 79 79 SSW 9 15 30.16 1021 10 16 0.00 0.00
11:53 am 11:53 Cloudy with Nearby Thunderstorms 83 28.3 74 23.3 74 74 SW 9 15 30.17 1022 10 16 0.00 0.00
12:27 pm 12:27 Mostly Cloudy with Nearby Thunderstorms 80 26.7 74 23.3 82 82 SW 14 22 30.17 1022 1 2 0.16 4.06
12:34 pm 12:34 Cloudy with Nearby Thunderstorms 76 24.4 69 20.6 79 79 W 9 15 30.18 1022 1 1 0.34 8.64
12:44 pm 12:44 Cloudy with Nearby Thunderstorms 75 23.9 70 21.1 84 84 VRB 3 6 30.17 1022 2 2 0.40 10.16
12:46 pm 12:46 Cloudy with Nearby Thunderstorms 76 24.4 70 21.1 82 82 ESE 3 6 30.17 1022 4 6 0.40 10.16
12:53 pm 12:53 Cloudy with Nearby Thunderstorms 76 24.4 73 22.8 91 91 Calm 30.17 1022 10 16 0.40 10.16
1:02 pm 13:02 Cloudy with Thunderstorms 77 25 74 23.3 90 90 Calm 30.17 1022 10 16 0.00 0.00
1:12 pm 13:12 Cloudy with Nearby Thunderstorms 76 24.4 73 22.8 91 91 ENE 3 6 30.18 1022 10 16 0.00 0.00
1:21 pm 13:21 Cloudy with Thunderstorms 76 24.4 73 22.8 91 91 VRB 6 9 30.17 1022 9 14 0.01 0.25
1:53 pm 13:53 Cloudy with Nearby Thunderstorms 74 23.3 70 21.1 88 88 S 14 22 30.19 1022 3 4 0.08 2.03
1:57 pm 13:57 Mostly Cloudy with Strong Thunderstorms 73 22.8 70 21.1 90 90 SSW 9 15 30.19 1022 2 2 0.05 1.27
2:07 pm 14:07 Cloudy with Thunderstorms 73 22.8 71 21.7 94 94 WSW 9 15 30.19 1022 3 5 0.09 2.29
2:15 pm 14:15 Cloudy with Thunderstorms 73 22.8 71 21.7 94 94 S 9 15 30.17 1022 2 3 0.12 3.05
2:26 pm 14:26 Cloudy with Thunderstorms 73 22.8 71 21.7 94 94 Calm 30.16 1021 6 10 0.14 3.56
2:33 pm 14:33 Cloudy with Nearby Thunderstorms 74 23.3 71 21.7 91 91 Calm 30.17 1022 10 16 0.14 3.56
2:53 pm 14:53 Mostly Cloudy with Nearby Thunderstorms 74 23.3 71 21.7 91 91 N 7 11 30.17 1022 10 16 0.15 3.81
3:09 pm 15:09 Mostly Cloudy with Light Rain 75 23.9 71 21.7 88 88 Calm 30.16 1021 10 16 0.00 0.00
3:53 pm 15:53 Sunny 78 25.6 73 22.8 85 85 Calm 30.14 1021 10 16 0.00 0.00
4:53 pm 16:53 Sunny 83 28.3 76 24.4 79 79 SSW 8 13 30.11 1020 10 16 0.00 0.00
5:41 pm 17:41 Mostly Cloudy 81 27.2 76 24.4 85 85 W 3 6 30.10 1019 10 16 0.00 0.00
5:53 pm 17:53 Cloudy 80 26.7 76 24.4 87 87 WSW 5 7 30.12 1020 10 16 0.00 0.00
6:17 pm 18:17 Partly Cloudy 79 26.1 74 23.3 85 85 W 5 7 30.11 1020 10 16 0.00 0.00
6:53 pm 18:53 Sunny 77 25 68 20 74 74 SW 8 13 30.13 1020 10 16 0.00 0.00
7:53 pm 19:53 Sunny 74 23.3 66 18.9 76 76 S 5 7 30.12 1020 10 16 0.00 0.00
8:53 pm 20:53 Clear 73 22.8 67 19.4 81 81 ESE 5 7 30.13 1020 10 16 0.00 0.00
9:53 pm 21:53 Clear 71 21.7 67 19.4 87 87 SE 5 7 30.16 1022 10 16 0.00 0.00
10:53 pm 22:53 Clear 70 21.1 67 19.4 90 90 SSW 5 7 30.17 1022 10 16 0.00 0.00
11:53 pm 23:53 Clear 71 21.7 66 18.9 84 84 S 3 6 30.17 1022 10 16 0.00 0.00

Powered by AerisWeather